Weather History for Whiting Fld NAS, FL

Change the Weather History Date:

Friday, December 14, 2012

  Actual Average Record
Temperature  
Mean Temperature 46 °F -  
Max Temperature 51 °F 59 °F 73 °F (2007)
Min Temperature 41 °F 41 °F 28 °F (2010)
Degree Days  
Heating Degree Days 19    
Moisture  
Dew Point 40 °F    
Average Humidity 83    
Maximum Humidity 93    
Minimum Humidity 68    
Precipitation  
Precipitation 0.00 in - - ()
Sea Level Pressure  
Sea Level Pressure 30.25 in    
Wind  
Wind Speed 4 mph (East)    
Max Wind Speed 9 mph    
Max Gust Speed -    
Visibility 5 miles    
Events Fog , Rain    
Averages and records for this station are not official NWS values.
T = Trace of Precipitation, MM = Missing Value Source: NWS Daily Summary

Daily Weather History Graph

Daily Weather History Graph

Search for Another Location

Airport:

Trip Planner

Search our weather history database for the weather conditions in past years. The results will help you decide how hot, cold, wet, or windy it might be!

Date:

Astronomy

Dec. 14, 2012 Rise Set
Actual Time 6:37 AM CST 4:48 PM CST
Civil Twilight 6:11 AM CST 5:14 PM CST
Nautical Twilight 5:41 AM CST 5:44 PM CST
Astronomical Twilight 5:11 AM CST 6:14 PM CST
Moon 7:45 AM CST (12/14) 6:36 PM CST (12/14)
Length of Visible Light 11h 03m
Length of Day
10h 10m
Waxing Crescent, 3% of the Moon is Illuminated
Dec 14
Waxing Crescent
Dec 19
First Quarter
Dec 28
Full
Jan 4
Last Quarter
Jan 11
New

Hourly Weather History & Observations

Time (CST) Temp. Windchill Dew Point Humidity Pressure Visibility Wind Dir Wind Speed Gust Speed Precip Events Conditions
12:56 AM 42.1 °F - 37.0 °F 82% 30.25 in 6.0 mi Calm Calm - N/A   Haze
1:56 AM 42.1 °F 38.4 °F 37.0 °F 82% 30.25 in 5.0 mi ENE 5.8 mph - N/A   Haze
2:56 AM 41.0 °F - 37.0 °F 86% 30.24 in 4.0 mi Calm Calm - N/A   Clear
3:56 AM 41.0 °F 39.0 °F 36.0 °F 82% 30.25 in 4.0 mi NE 3.5 mph - N/A   Haze
4:15 AM 41.0 °F 39.0 °F 35.6 °F 81% 30.28 in 3.0 mi NE 3.5 mph - N/A   Haze
4:22 AM 42.8 °F 39.3 °F 37.4 °F 81% 30.28 in 4.0 mi ENE 5.8 mph - 0.00 in Rain Light Rain
4:40 AM 42.8 °F 38.0 °F 37.4 °F 81% 30.28 in 1.8 mi ENE 8.1 mph - 0.00 in   Haze
4:56 AM 43.0 °F 37.7 °F 39.0 °F 86% 30.25 in 0.8 mi ENE 9.2 mph - 0.00 in   Overcast
5:56 AM 43.0 °F 38.2 °F 39.0 °F 86% 30.26 in 0.2 mi East 8.1 mph - N/A Fog Fog
6:56 AM 44.1 °F 40.8 °F 41.0 °F 89% 30.28 in 0.2 mi East 5.8 mph - N/A Fog Fog
7:56 AM 44.1 °F 40.8 °F 41.0 °F 89% 30.29 in 0.2 mi East 5.8 mph - N/A Fog Fog
8:06 AM 44.6 °F 40.2 °F 41.0 °F 87% 30.33 in 0.5 mi East 8.1 mph - N/A Fog Fog
8:36 AM 44.6 °F 41.4 °F 42.8 °F 93% 30.33 in 0.8 mi East 5.8 mph - N/A   Overcast
8:56 AM 45.0 °F 40.1 °F 42.1 °F 90% 30.30 in 1.0 mi ENE 9.2 mph - N/A   Overcast
9:16 AM 46.4 °F 42.9 °F 42.8 °F 87% 30.33 in 1.5 mi East 6.9 mph - N/A   Overcast
9:30 AM 46.4 °F 42.4 °F 42.8 °F 87% 30.34 in 3.0 mi East 8.1 mph - N/A   Overcast
9:56 AM 46.0 °F 43.1 °F 43.0 °F 89% 30.31 in 4.0 mi East 5.8 mph - N/A   Overcast
10:07 AM 46.4 °F 43.5 °F 44.6 °F 93% 30.34 in 5.0 mi East 5.8 mph - N/A   Overcast
10:35 AM 46.4 °F 42.9 °F 44.6 °F 93% 30.31 in 7.0 mi ENE 6.9 mph - N/A   Overcast
10:56 AM 48.0 °F - 43.0 °F 83% 30.27 in 8.0 mi NE 6.9 mph - N/A   Overcast
11:56 AM 48.9 °F - 42.1 °F 77% 30.26 in 10.0 mi East 5.8 mph - N/A   Overcast
12:38 PM 50.0 °F - 42.8 °F 76% 30.26 in 10.0 mi ESE 4.6 mph - N/A   Overcast
12:56 PM 50.0 °F - 42.1 °F 74% 30.22 in 10.0 mi East 4.6 mph - N/A   Overcast
1:56 PM 51.1 °F - 42.1 °F 71% 30.20 in 10.0 mi Calm Calm - N/A   Overcast
2:56 PM 51.1 °F - 41.0 °F 68% 30.21 in 10.0 mi SW 3.5 mph - N/A   Overcast
3:56 PM 51.1 °F - 42.1 °F 71% 30.20 in 10.0 mi Calm Calm - N/A   Mostly Cloudy
4:56 PM 50.0 °F - 41.0 °F 71% 30.19 in 10.0 mi Calm Calm - N/A   Mostly Cloudy
5:56 PM 43.0 °F - 37.9 °F 82% 30.18 in 9.0 mi Calm Calm - N/A   Scattered Clouds
6:56 PM 43.0 °F - 37.9 °F 82% 30.18 in 9.0 mi Calm Calm - N/A   Partly Cloudy
7:56 PM 43.0 °F 38.2 °F 39.0 °F 86% 30.15 in 7.0 mi ESE 8.1 mph - N/A   Scattered Clouds
8:56 PM 43.0 °F 39.5 °F 39.0 °F 86% 30.15 in 7.0 mi SE 5.8 mph - N/A   Mostly Cloudy
9:56 PM 45.0 °F 43.5 °F 39.9 °F 82% 30.14 in 7.0 mi ESE 3.5 mph - N/A   Mostly Cloudy
10:36 PM 44.6 °F - 39.2 °F 81% 30.19 in 7.0 mi Calm Calm - N/A   Mostly Cloudy
10:56 PM 45.0 °F - 39.9 °F 82% 30.16 in 5.0 mi Calm Calm - N/A   Haze
11:56 PM 45.0 °F - 39.9 °F 82% 30.13 in 5.0 mi Calm Calm - N/A   Haze